This is the latest recevied weather packets stored in our database for station/object AB1AU. If no packets are shown the sender has not sent any weather packets the latest 10 day(s).
| Time | Temp. | Humidity | Pressure | Rain* | Wind** | Luminosity | Snow |
|---|---|---|---|---|---|---|---|
| 1777509676 | 7.78° C | 86% | 1016.2 hPa | 0 mm | - | 0 W/m² | - |
| 1777509373 | 7.78° C | 85% | 1016.3 hPa | 0 mm | - | 0 W/m² | - |
| 1777509070 | 7.78° C | 85% | 1016.1 hPa | 0 mm | - | 0 W/m² | - |
| 1777508767 | 7.78° C | 84% | 1016.4 hPa | 0 mm | - | 0 W/m² | - |
| 1777508464 | 7.78° C | 84% | 1016.3 hPa | 0 mm | - | 0 W/m² | - |
| 1777508161 | 7.78° C | 84% | 1016.5 hPa | 0 mm | - | 0 W/m² | - |
| 1777507857 | 8.33° C | 84% | 1016.4 hPa | 0 mm | - | 0 W/m² | - |
| 1777507555 | 8.33° C | 84% | 1016.4 hPa | 0 mm | - | 0 W/m² | - |
| 1777507251 | 8.33° C | 84% | 1016.4 hPa | 0 mm | - | 0 W/m² | - |
| 1777506949 | 8.33° C | 84% | 1016.1 hPa | 0 mm | - | 0 W/m² | - |
| 1777506646 | 7.78° C | 84% | 1016 hPa | 0 mm | - | 0 W/m² | - |
| 1777506342 | 8.33° C | 84% | 1016.2 hPa | 0 mm | - | 0 W/m² | - |
| 1777506038 | 8.33° C | 84% | 1016.3 hPa | 0 mm | - | 1 W/m² | - |
| 1777505734 | 8.33° C | 83% | 1016 hPa | 0 mm | - | 1 W/m² | - |
| 1777505432 | 8.89° C | 81% | 1016.1 hPa | 0 mm | - | 1 W/m² | - |
| 1777505128 | 8.89° C | 80% | 1016 hPa | 0 mm | - | 3 W/m² | - |
| 1777504825 | 8.89° C | 80% | 1016.4 hPa | 0 mm | - | 6 W/m² | - |
| 1777504522 | 8.89° C | 79% | 1016.3 hPa | 0 mm | - | 8 W/m² | - |
| 1777504218 | 9.44° C | 79% | 1016.2 hPa | 0 mm | - | 10 W/m² | - |
| 1777503914 | 9.44° C | 78% | 1016.2 hPa | 0 mm | - | 15 W/m² | - |
| 1777503610 | 9.44° C | 77% | 1016.2 hPa | 0 mm | - | 14 W/m² | - |
| 1777503307 | 9.44° C | 77% | 1016.2 hPa | 0 mm | - | 18 W/m² | - |
| 1777503003 | 10° C | 76% | 1016 hPa | 0 mm | - | 18 W/m² | - |
| 1777502701 | 10° C | 76% | 1016.1 hPa | 0 mm | - | 13 W/m² | - |
| 1777502397 | 10.56° C | 75% | 1016.1 hPa | 0 mm | - | 16 W/m² | - |
* Rain latest hour (hover to see other rain measurements)
** Current wind speed in m/s (hover to see current wind gust speed)